Overview Statistics Trail Chart Weather Telemetry Raw packets
 

This is the latest recevied weather packets stored in our database for station/object 4S6DRJ-13. If no packets are shown the sender has not sent any weather packets the latest 10 day(s).

<< 149 150 151 152 153 154 155 >>
Time Temp. Humidity Pressure Rain* Wind** Luminosity Snow
1788238442 30.56° C 72% 1009.5 hPa 0 mm 1.79 m/s, 210° 219 W/m² -
1788238381 30.56° C 72% 1009.5 hPa 0 mm 1.79 m/s, 113° 272 W/m² -
1788238320 30.56° C 74% 1009.6 hPa 0 mm 0.89 m/s, 207° 414 W/m² -
1788238258 30.56° C 74% 1009.6 hPa 0 mm 0.45 m/s, 203° 1120 W/m² -
1788238198 30.56° C 74% 1009.6 hPa 0 mm 1.79 m/s, 225° 1113 W/m² -
1788238136 30.56° C 74% 1009.7 hPa 0 mm 1.79 m/s, 205° 1108 W/m² -
1788238076 30.56° C 74% 1009.5 hPa 0 mm 1.34 m/s, 221° 1108 W/m² -
1788238014 30.56° C 73% 1009.7 hPa 0 mm 1.79 m/s, 267° 1108 W/m² -
1788237953 30.56° C 73% 1009.7 hPa 0 mm 0.89 m/s, 226° 236 W/m² -
1788237831 30.56° C 74% 1009.7 hPa 0 mm 1.34 m/s, 277° 1120 W/m² -
1788237771 30.56° C 73% 1009.8 hPa 0 mm 0.89 m/s, 268° 333 W/m² -
1788237710 30.56° C 73% 1009.8 hPa 0 mm 1.79 m/s, 196° 572 W/m² -
1788237668 30.56° C 73% 1009.7 hPa 0 mm 0.89 m/s, 297° 1111 W/m² -
1788237587 30.56° C 73% 1009.7 hPa 0 mm 2.68 m/s, 110° 369 W/m² -
1788237526 30.56° C 73% 1009.8 hPa 0 mm 1.79 m/s, 250° 351 W/m² -
1788237466 30.56° C 73% 1009.7 hPa 0 mm 2.68 m/s, 194° 1119 W/m² -
1788237404 30.56° C 73% 1009.7 hPa 0 mm 1.79 m/s, 232° 1116 W/m² -
1788237343 30.56° C 73% 1009.6 hPa 0 mm 0.89 m/s, 237° 299 W/m² -
1788237283 30° C 74% 1009.8 hPa 0 mm 2.68 m/s, 255° 1109 W/m² -
1788237222 30° C 74% 1009.8 hPa 0 mm 1.79 m/s, 284° 1104 W/m² -
1788237160 30° C 77% 1009.8 hPa 0 mm 0.89 m/s, 266° 1103 W/m² -
1788237099 30° C 76% 1009.7 hPa 0 mm 0.89 m/s, 283° 1102 W/m² -
1788237038 30° C 77% 1009.8 hPa 0 mm 0.45 m/s, 197° 1101 W/m² -
1788236977 30° C 77% 1009.5 hPa 0 mm 1.34 m/s, 209° 495 W/m² -
1788236916 30° C 76% 1009.8 hPa 0 mm 2.24 m/s, 200° 212 W/m² -

* Rain latest hour (hover to see other rain measurements)
** Current wind speed in m/s (hover to see current wind gust speed)